Location: Namasale
(1.5000°N, 32.6167°E)
Time: 21:49:08
(UTC+00:00)

Tiros 1 - Pass Details

Date: 23 April 2021
Orbit: 630 x 664 km, 48.4° (Epoch: 06 May)

Event Time Altitude Azimuth Distance (km) Brightness Sun altitude
Exits shadow 02:32:09 17° 200° (SSW) 1,664 8.9 -18.1°
Maximum altitude 02:35:41 51° 129° (SE) 821 7.9 -17.3°
Drops below altitude 10° 02:40:15 10° 53° (NE) 2,041 10.8 -16.2°
Sets 02:42:37 0° 48° (NE) 2,943 11.7 -15.6°
